• In Belarus
  • List of Countries
  • For 7 days
  • Water Temperature
  • Satellite Maps
  • Weather Map
  • Weather Widgets
  • user-avatar
    Login

    Hourly Weather Comayagua

    Today, 20 April, Saturday

    Time Temperature Precipitation Wind Pressure Humidity
    00:00 +25°C° 0.4 mm 2 mps 709 mmHg 87%
    01:00 +24°C° 0.6 mm 2 mps 709 mmHg 89%
    02:00 +24°C° 0.6 mm 2 mps 709 mmHg 90%
    03:00 +24°C° 0.6 mm 2 mps 709 mmHg 92%
    04:00 +23°C° 0.6 mm 2 mps 709 mmHg 91%
    05:00 +23°C° 0.6 mm 2 mps 710 mmHg 91%
    06:00 +23°C° 0.6 mm 2 mps 710 mmHg 91%
    07:00 +23°C° 0.6 mm 2 mps 710 mmHg 91%
    08:00 +23°C° 0.6 mm 2 mps 710 mmHg 91%
    09:00 +21°C° 0.6 mm 3 mps 711 mmHg 91%
    10:00 +22°C° 0.5 mm 3 mps 710 mmHg 90%
    11:00 +22°C° 0.5 mm 3 mps 710 mmHg 90%
    12:00 +22°C° 0.5 mm 3 mps 710 mmHg 89%
    13:00 +24°C° 0.1 mm 3 mps 710 mmHg 84%
    14:00 +25°C° 0.1 mm 3 mps 709 mmHg 79%
    15:00 +26°C° 0.1 mm 4 mps 709 mmHg 75%
    16:00 +25°C° 0 mm 3 mps 709 mmHg 78%
    17:00 +24°C° 0 mm 3 mps 709 mmHg 81%
    18:00 +24°C° 0 mm 3 mps 709 mmHg 84%
    19:00 +23°C° 0 mm 2 mps 710 mmHg 87%
    20:00 +21°C° 0 mm 2 mps 710 mmHg 90%
    21:00 +20°C° 0 mm 2 mps 711 mmHg 92%
    22:00 +20°C° 0 mm 2 mps 711 mmHg 91%
    23:00 +20°C° 0 mm 2 mps 710 mmHg 90%

    Tomorrow, 21 April, Sunday

    Time Temperature Precipitation Wind Pressure Humidity
    00:00 +19°C° 0 mm 2 mps 710 mmHg 88%
    01:00 +19°C° 0 mm 2 mps 710 mmHg 85%
    02:00 +19°C° 0 mm 2 mps 709 mmHg 82%
    03:00 +18°C° 0 mm 2 mps 709 mmHg 79%
    04:00 +18°C° 0 mm 2 mps 709 mmHg 76%
    05:00 +19°C° 0 mm 1 mps 709 mmHg 74%
    06:00 +19°C° 0 mm 1 mps 710 mmHg 72%
    07:00 +20°C° 0 mm 2 mps 710 mmHg 61%
    08:00 +24°C° 0 mm 2 mps 711 mmHg 50%
    09:00 +27°C° 0 mm 3 mps 712 mmHg 39%
    10:00 +29°C° 0 mm 3 mps 712 mmHg 36%
    11:00 +30°C° 0 mm 3 mps 712 mmHg 34%
    12:00 +33°C° 0 mm 3 mps 711 mmHg 32%
    13:00 +33°C° 0 mm 3 mps 711 mmHg 33%
    14:00 +34°C° 0 mm 3 mps 710 mmHg 34%
    15:00 +34°C° 0 mm 3 mps 709 mmHg 36%
    16:00 +31°C° 0 mm 3 mps 709 mmHg 43%
    17:00 +29°C° 0 mm 2 mps 709 mmHg 51%
    18:00 +28°C° 0 mm 2 mps 709 mmHg 58%
    19:00 +26°C° 0 mm 2 mps 710 mmHg 66%
    20:00 +25°C° 0 mm 2 mps 710 mmHg 74%
    21:00 +23°C° 0 mm 1 mps 711 mmHg 83%
    22:00 +23°C° 0 mm 1 mps 710 mmHg 86%
    23:00 +22°C° 0 mm 1 mps 710 mmHg 90%

    Day after tomorrow, 22 April, Monday

    Time Temperature Precipitation Wind Pressure Humidity
    00:00 +22°C° 0 mm 1 mps 710 mmHg 93%
    01:00 +21°C° 0 mm 1 mps 710 mmHg 94%
    02:00 +21°C° 0 mm 1 mps 709 mmHg 94%
    03:00 +21°C° 0 mm 1 mps 708 mmHg 95%
    04:00 +21°C° 0 mm 1 mps 709 mmHg 94%
    05:00 +22°C° 0 mm 1 mps 709 mmHg 93%
    06:00 +20°C° 0 mm 0 mps 709 mmHg 92%
    07:00 +24°C° 0 mm 1 mps 710 mmHg 80%
    08:00 +27°C° 0 mm 1 mps 710 mmHg 68%
    09:00 +30°C° 0 mm 1 mps 711 mmHg 56%
    10:00 +31°C° 0 mm 2 mps 711 mmHg 49%
    11:00 +34°C° 0 mm 2 mps 710 mmHg 43%
    12:00 +36°C° 0 mm 2 mps 710 mmHg 37%
    13:00 +35°C° 0 mm 2 mps 709 mmHg 38%
    14:00 +35°C° 0 mm 2 mps 708 mmHg 39%
    15:00 +34°C° 0 mm 2 mps 707 mmHg 41%
    16:00 +32°C° 0 mm 2 mps 707 mmHg 46%
    17:00 +31°C° 0 mm 2 mps 708 mmHg 50%
    18:00 +29°C° 0 mm 1 mps 708 mmHg 55%
    19:00 +28°C° 0 mm 1 mps 708 mmHg 63%
    20:00 +26°C° 0 mm 1 mps 709 mmHg 71%
    21:00 +25°C° 0 mm 1 mps 709 mmHg 80%
    22:00 +25°C° 0 mm 1 mps 709 mmHg 83%
    23:00 +24°C° 0 mm 1 mps 709 mmHg 87%

    23 April, Tuesday

    Time Temperature Precipitation Wind Pressure Humidity
    00:00 +22°C° 0 mm 0 mps 709 mmHg 90%
    01:00 +21°C° 0 mm 0 mps 709 mmHg 92%
    02:00 +21°C° 0 mm 0 mps 708 mmHg 94%
    03:00 +21°C° 0 mm 0 mps 708 mmHg 95%
    04:00 +21°C° 0 mm 0 mps 708 mmHg 95%
    05:00 +21°C° 0 mm 0 mps 708 mmHg 95%
    06:00 +21°C° 0 mm 0 mps 708 mmHg 94%
    07:00 +25°C° 0 mm 1 mps 709 mmHg 81%
    08:00 +28°C° 0 mm 1 mps 710 mmHg 67%
    09:00 +31°C° 0 mm 1 mps 710 mmHg 53%
    10:00 +32°C° 0 mm 1 mps 710 mmHg 49%
    11:00 +34°C° 0 mm 2 mps 709 mmHg 44%
    12:00 +35°C° 0 mm 2 mps 709 mmHg 40%
    13:00 +35°C° 0 mm 2 mps 708 mmHg 40%
    14:00 +35°C° 0 mm 2 mps 707 mmHg 40%
    15:00 +35°C° 0 mm 2 mps 707 mmHg 40%
    16:00 +32°C° 0 mm 1 mps 707 mmHg 43%
    17:00 +31°C° 0 mm 1 mps 707 mmHg 47%
    18:00 +30°C° 0 mm 1 mps 707 mmHg 51%
    19:00 +29°C° 0.1 mm 1 mps 707 mmHg 60%
    20:00 +27°C° 0.1 mm 1 mps 708 mmHg 69%
    21:00 +26°C° 0.1 mm 1 mps 708 mmHg 79%
    22:00 +25°C° 0.2 mm 1 mps 708 mmHg 81%
    23:00 +25°C° 0.2 mm 1 mps 708 mmHg 83%

    24 April, Wednesday

    Time Temperature Precipitation Wind Pressure Humidity
    00:00 +23°C° 0.2 mm 0 mps 708 mmHg 85%
    01:00 +22°C° 0 mm 0 mps 708 mmHg 86%
    02:00 +22°C° 0 mm 0 mps 707 mmHg 87%
    03:00 +21°C° 0 mm 0 mps 707 mmHg 88%
    04:00 +21°C° 0 mm 0 mps 707 mmHg 89%
    05:00 +21°C° 0 mm 0 mps 707 mmHg 90%
    06:00 +21°C° 0 mm 0 mps 708 mmHg 90%
    07:00 +24°C° 0 mm 0 mps 708 mmHg 78%
    08:00 +29°C° 0 mm 1 mps 709 mmHg 65%
    09:00 +32°C° 0 mm 1 mps 710 mmHg 52%
    10:00 +34°C° 0 mm 1 mps 709 mmHg 44%
    11:00 +36°C° 0 mm 1 mps 709 mmHg 37%
    12:00 +39°C° 0 mm 1 mps 709 mmHg 29%
    13:00 +39°C° 0 mm 1 mps 708 mmHg 29%
    14:00 +37°C° 0 mm 1 mps 707 mmHg 29%
    15:00 +38°C° 0 mm 2 mps 706 mmHg 30%
    16:00 +35°C° 0 mm 1 mps 706 mmHg 35%
    17:00 +33°C° 0 mm 1 mps 706 mmHg 41%
    18:00 +29°C° 0 mm 0 mps 707 mmHg 46%
    19:00 +28°C° 0 mm 0 mps 707 mmHg 52%
    20:00 +27°C° 0 mm 0 mps 707 mmHg 58%
    21:00 +26°C° 0 mm 0 mps 708 mmHg 64%
    22:00 +25°C° 0 mm 0 mps 707 mmHg 67%
    23:00 +26°C° 0 mm 1 mps 707 mmHg 70%

    25 April, Thursday

    Time Temperature Precipitation Wind Pressure Humidity
    00:00 +26°C° 0 mm 1 mps 707 mmHg 73%
    01:00 +25°C° 0 mm 1 mps 707 mmHg 75%
    02:00 +25°C° 0 mm 1 mps 707 mmHg 77%
    03:00 +24°C° 0 mm 1 mps 706 mmHg 79%
    04:00 +24°C° 0 mm 1 mps 707 mmHg 82%
    05:00 +24°C° 0 mm 1 mps 707 mmHg 84%
    06:00 +24°C° 0 mm 1 mps 708 mmHg 86%
    07:00 +27°C° 0 mm 1 mps 708 mmHg 74%
    08:00 +29°C° 0 mm 1 mps 709 mmHg 62%
    09:00 +32°C° 0 mm 1 mps 710 mmHg 51%
    10:00 +34°C° 0 mm 1 mps 709 mmHg 45%
    11:00 +35°C° 0 mm 1 mps 709 mmHg 40%
    12:00 +37°C° 0 mm 1 mps 709 mmHg 35%
    13:00 +36°C° 0 mm 1 mps 708 mmHg 37%
    14:00 +35°C° 0 mm 1 mps 707 mmHg 40%
    15:00 +34°C° 0 mm 1 mps 706 mmHg 42%
    16:00 +33°C° 0 mm 1 mps 707 mmHg 45%
    17:00 +32°C° 0 mm 1 mps 707 mmHg 48%
    18:00 +31°C° 0 mm 1 mps 707 mmHg 52%
    19:00 +30°C° 0 mm 1 mps 707 mmHg 57%
    20:00 +29°C° 0 mm 1 mps 708 mmHg 62%
    21:00 +27°C° 0 mm 1 mps 708 mmHg 67%
    22:00 +25°C° 0 mm 0 mps 708 mmHg 69%
    23:00 +24°C° 0 mm 0 mps 708 mmHg 72%
    Show more